Theta_e
295 297 297 297 298 297 297 298 298 299 298 299 299 299 298 298 298 297 295 295 293 291 292 293 294 294 293 294 295 290 294 292 292 293 290 293 288 290 288 288 289 289 289 289 287 290 290 288 288 290 290 289 289 287
295 296 296 296 297 298 297 297 298 298 297 297 297 298 298 298 297 298 297 296 294 290 291 293 294 294 294 293 290 285 292 288 291 289 286 288 284 283 285 287 289 289 289 286 289 288 290 288 290 289 289 288 289 288
294 295 294 295 297 297 297 297 298 298 298 298 298 298 298 298 298 298 297 296 294 294 292 292 292 295 295 294 294 290 287 289 291 289 285 285 284 288 284 284 286 288 287 288 287 288 289 289 289 288 288 288 288 288
294 295 295 295 296 296 296 298 298 297 297 298 298 298 297 298 297 298 297 296 296 294 292 290 292 293 295 294 293 292 291 290 289 290 285 283 283 289 286 288 288 288 287 287 287 289 288 288 287 288 288 287 288 287
294 294 295 295 295 295 295 296 296 297 297 297 298 297 297 298 298 298 297 296 295 294 293 286 289 293 294 294 293 293 291 289 288 288 283 285 286 289 285 291 288 289 291 290 290 290 290 290 289 288 287 287 287 287
293 294 295 294 294 295 295 295 296 295 296 296 296 297 297 297 297 297 295 296 296 295 295 290 289 286 293 293 292 290 290 289 289 293 288 288 289 292 292 292 292 291 290 290 291 290 289 289 288 288 287 287 286 285
293 293 294 294 294 294 294 295 295 295 295 295 294 294 295 295 296 293 295 295 295 294 294 294 290 286 289 290 285 290 291 288 293 294 293 291 291 293 293 291 292 289 289 289 289 289 289 289 289 287 286 287 286 285
292 293 294 294 294 294 293 294 294 295 295 294 294 295 295 294 294 295 294 294 295 294 292 295 290 286 288 291 293 290 294 293 293 294 291 292 292 293 293 292 291 290 290 289 288 288 289 289 285 285 282 279 278 279
293 293 292 294 294 293 294 293 293 294 294 294 294 294 294 294 293 293 294 294 294 294 294 293 286 285 288 292 292 291 293 294 293 294 292 293 290 293 291 291 291 290 290 290 286 281 281 284 286 281 277 275 277 277
292 291 293 293 293 293 293 293 293 293 293 293 292 292 293 291 292 293 294 293 293 292 293 289 280 283 288 287 289 290 291 292 291 291 290 292 292 292 291 287 288 288 288 284 284 284 274 276 278 277 276 274 274 274
291 292 292 292 292 292 292 292 292 292 292 291 291 292 291 292 293 292 292 293 292 292 291 284 284 284 284 286 289 290 290 291 291 288 289 287 287 291 290 289 288 287 283 281 280 276 274 275 276 275 272 269 269 268
291 291 290 290 290 290 290 291 291 291 290 290 290 291 291 292 292 291 292 287 291 286 280 289 282 285 283 283 287 288 288 288 290 280 285 284 288 288 285 287 287 278 276 271 270 271 270 270 270 269 267 264 263 264
288 289 289 289 289 289 289 290 290 290 290 289 288 288 290 289 290 291 290 284 283 278 284 282 286 286 288 288 288 290 290 289 284 288 287 284 287 280 282 274 268 267 267 266 265 265 264 262 264 263 261 262 262 261
287 287 288 288 288 288 289 290 290 289 288 287 287 288 288 287 284 286 278 279 282 280 281 281 286 285 287 289 290 290 289 286 289 289 284 288 279 280 271 266 266 265 264 264 262 261 261 260 259 260 261 261 261 260
285 286 286 286 287 287 288 289 289 289 287 286 286 287 288 275 269 267 266 274 276 276 286 284 282 288 286 289 290 289 286 288 287 283 280 274 269 269 266 264 263 262 261 259 257 258 259 259 258 257 258 259 259 259
284 284 285 285 286 287 287 288 288 287 287 287 283 281 270 273 271 269 268 274 274 281 283 285 288 290 289 289 289 288 286 284 282 275 266 267 267 266 264 263 261 260 259 257 257 257 257 257 257 258 258 259 259 259
281 282 282 283 284 285 286 286 287 286 285 286 278 259 266 270 275 270 271 275 277 284 286 286 288 288 288 289 288 282 280 275 268 267 264 264 263 262 260 260 259 258 256 257 256 257 256 256 257 258 255 259 260 260
280 280 282 282 284 284 283 280 282 281 278 272 272 264 262 260 267 268 272 273 279 285 285 287 285 287 287 287 281 274 268 262 262 260 260 258 257 258 259 258 258 258 256 256 256 255 255 256 256 256 258 259 259 260
280 280 280 280 282 280 274 272 273 277 271 263 269 268 265 262 264 265 265 270 272 273 277 278 282 285 281 270 268 267 265 264 262 261 259 258 259 258 257 256 256 255 255 255 255 256 257 258 258 258 258 259 259 259
279 279 278 278 280 276 274 271 270 273 271 268 265 267 267 267 264 261 262 268 273 275 277 275 266 261 262 261 260 261 262 263 262 263 261 259 257 257 257 257 257 256 255 256 257 257 257 258 258 258 258 258 258 258
276 276 275 277 271 269 269 269 266 267 267 265 265 269 268 267 265 263 264 266 267 262 264 258 258 258 258 257 256 257 259 259 263 262 261 259 257 257 256 257 257 257 256 256 256 256 258 258 258 258 258 258 258 258
273 274 273 272 269 267 266 265 267 266 267 262 267 266 265 266 263 262 263 263 260 257 256 255 256 256 257 257 256 255 256 258 259 259 259 258 258 258 257 256 256 253 255 257 258 257 258 258 258 258 258 258 258 259
272 271 268 267 267 264 263 263 266 266 268 266 263 267 263 260 261 263 261 258 256 256 254 253 254 254 255 256 256 257 256 258 258 257 257 257 257 257 257 257 258 257 254 258 258 258 258 258 258 258 258 258 258 259
268 261 263 262 263 263 259 263 264 264 264 264 265 266 263 261 260 264 259 255 257 256 255 254 255 257 258 258 257 256 255 256 256 256 256 257 255 255 258 258 259 259 259 259 259 258 258 258 258 258 258 258 258 258
266 257 259 260 258 260 260 260 262 265 264 264 266 265 262 256 264 261 260 257 257 256 256 255 256 257 256 257 257 256 256 256 256 254 257 258 257 257 258 259 259 259 259 259 259 258 259 259 259 259 258 258 258 258
256 252 255 250 256 257 257 260 259 259 261 263 260 260 257 262 261 258 257 256 254 254 253 252 252 254 257 255 256 256 257 257 258 257 259 259 259 259 252 251 251 259 260 259 259 259 259 259 259 259 259 259 258 258
257 253 250 249 252 253 258 257 258 260 259 259 257 260 264 262 259 257 253 255 254 254 253 253 252 251 252 254 257 258 258 258 258 258 259 259 259 258 258 257 257 259 259 259 259 259 259 259 259 259 259 259 259 259
249 249 254 251 251 246 250 251 254 255 255 253 255 257 258 257 255 255 255 255 254 254 255 256 256 256 256 257 258 259 260 260 260 260 259 258 258 258 258 258 258 258 258 258 258 259 258 259 258 258 258 258 259 259
248 247 248 253 249 250 248 249 250 249 248 249 256 257 256 256 254 253 254 254 255 255 256 257 258 259 258 258 258 258 259 259 260 260 259 259 258 259 259 259 259 259 259 259 259 259 259 259 259 259 259 259 259 259
249 243 253 254 254 253 250 246 248 246 246 247 247 252 254 254 255 255 255 255 255 255 256 256 256 257 257 258 258 258 257 257 256 256 256 257 257 257 257 258 258 258 258 258 259 259 259 259 259 259 259 258 258 257
243 245 250 251 251 248 247 244 245 246 247 249 249 252 253 253 256 256 256 256 256 256 256 256 256 256 256 256 256 256 256 256 256 256 256 256 256 257 257 257 257 257 257 257 257 257 257 256 256 256 256 256 256 256
251 251 252 254 251 244 240 246 248 249 249 251 252 252 253 255 255 256 256 256 256 256 256 255 255 255 256 256 255 256 255 255 255 255 255 255 256 256 256 256 256 256 257 256 256 256 255 255 255 255 254 254 254 255
250 250 250 252 253 253 251 251 254 255 255 254 254 253 253 256 256 256 256 255 255 255 255 255 255 255 256 255 255 255 254 254 253 254 254 255 255 255 255 255 255 255 254 254 254 254 254 254 253 254 254 253 253 253
Wind_Speed
28 26 21 23 25 25 24 21 25 23 23 22 20 22 24 22 21 23 14 16 9 2 3 3 3 3 3 2 5 5 4 1 2 3 4 4 3 7 3 3 7 7 8 5 3 4 8 8 6 7 6 3 6 6
31 28 26 26 25 25 25 25 23 21 22 22 23 24 22 22 23 24 6 17 18 3 3 4 7 7 2 7 6 2 3 5 5 3 1 3 1 1 4 4 2 2 7 6 11 7 3 7 7 12 5 6 6 6
31 31 28 28 24 24 25 26 24 24 23 23 23 22 25 23 23 25 11 18 11 2 3 2 4 11 13 9 13 5 2 4 4 3 4 3 4 3 4 5 2 4 4 4 4 5 6 7 12 5 7 9 8 10
30 30 29 27 24 21 18 24 23 22 23 21 21 21 25 27 26 25 18 23 16 2 3 4 4 7 10 17 16 5 9 6 5 3 2 3 3 3 3 3 5 6 6 4 3 6 7 9 9 10 12 9 11 9
30 27 27 25 27 26 22 18 16 18 19 20 21 17 18 22 24 24 26 25 26 6 3 3 3 7 10 20 21 14 17 6 3 2 2 3 2 3 1 1 4 7 13 5 7 16 12 12 8 7 9 13 13 13
27 29 29 27 23 24 24 26 21 17 16 16 15 19 18 15 16 10 2 18 33 26 2 3 3 3 15 19 18 9 9 3 3 4 3 3 4 5 4 5 14 18 5 12 14 18 9 13 9 9 10 12 12 10
25 24 25 28 25 22 24 24 24 23 20 18 15 12 11 12 17 3 3 3 29 25 2 2 3 2 4 4 1 2 6 2 3 3 4 3 3 7 3 7 21 7 11 15 12 7 10 16 10 9 10 14 11 9
23 23 25 27 24 21 21 20 23 20 19 17 15 14 13 13 15 10 9 6 18 9 2 3 2 1 5 3 3 3 3 4 5 4 2 4 4 4 7 16 10 15 18 10 14 14 19 16 2 8 4 4 5 6
24 22 26 29 22 19 20 21 21 19 18 16 15 13 10 8 4 4 12 12 19 6 2 3 5 4 2 2 3 1 3 4 4 6 5 6 4 8 10 12 16 19 14 18 5 3 4 10 14 4 5 3 5 4
21 25 22 25 20 20 20 19 17 20 17 13 10 4 4 8 10 14 8 3 4 4 3 4 2 2 3 1 1 3 2 3 3 3 4 6 9 25 10 7 11 15 15 6 4 9 1 5 7 5 6 2 2 2
21 18 18 21 20 20 19 18 18 17 15 7 3 3 5 16 6 3 4 6 4 4 5 4 5 4 2 4 3 3 3 4 4 4 7 3 8 18 14 17 17 12 8 9 5 3 4 3 5 6 4 4 6 7
15 20 19 18 16 15 14 16 18 17 10 11 9 6 5 4 4 5 5 2 4 6 2 6 4 4 3 3 3 4 5 4 6 3 4 4 12 11 9 17 15 6 8 7 3 8 6 6 6 7 7 6 8 10
13 13 13 13 11 11 12 15 19 17 20 10 3 2 3 2 4 6 8 2 3 3 4 3 2 4 3 2 3 5 7 6 4 5 4 5 7 6 11 5 4 5 7 8 6 10 13 10 10 8 10 11 10 8
10 7 6 6 5 7 10 12 16 22 8 3 4 6 5 3 3 4 5 4 4 3 5 3 3 3 3 5 3 4 4 4 5 5 7 8 7 7 4 3 6 7 6 8 8 8 9 10 11 12 12 10 8 6
9 8 6 5 4 3 5 8 16 13 4 3 3 5 4 2 1 2 2 1 2 1 5 3 2 3 2 4 4 3 4 4 5 6 4 2 6 3 3 3 7 9 8 7 5 6 9 13 12 10 8 6 4 2
7 8 8 7 6 2 4 7 7 5 5 3 3 3 1 3 3 2 1 1 2 1 2 2 3 3 4 3 6 7 6 7 5 3 2 3 4 4 4 7 6 5 7 8 11 12 13 12 11 9 6 6 4 2
6 4 5 8 6 1 0 6 5 2 1 3 2 2 2 2 4 3 3 3 1 2 2 2 3 5 1 3 3 4 5 3 2 2 3 5 2 3 4 7 8 11 7 10 13 14 12 11 10 10 5 4 3 2
4 5 5 13 8 8 2 5 2 3 3 2 2 2 2 1 2 2 2 3 1 3 2 1 2 3 3 2 3 2 3 2 3 1 3 4 5 4 6 7 8 13 9 10 13 13 10 9 9 5 5 3 4 3
4 6 6 10 3 5 3 4 5 3 2 1 2 2 2 1 1 1 2 3 1 1 2 2 3 3 2 1 2 2 1 1 0 1 1 4 6 6 7 9 11 11 12 10 10 10 9 8 7 5 4 3 3 3
3 6 7 6 2 3 3 2 5 3 2 1 2 2 2 2 1 1 2 3 2 0 2 3 2 1 2 2 2 3 2 2 1 1 1 3 5 6 5 5 7 11 11 9 9 9 9 7 5 4 2 1 1 2
1 3 5 3 6 10 4 3 3 2 2 3 1 2 2 2 3 3 3 4 3 3 2 2 1 2 2 2 4 5 3 5 2 2 1 2 3 6 6 7 11 10 5 7 6 5 7 7 5 3 1 0 1 2
3 3 3 6 4 3 4 6 2 1 2 1 2 2 3 2 3 3 3 5 3 2 2 2 2 3 4 3 4 6 7 8 4 4 9 12 3 3 3 7 9 4 7 7 8 8 6 5 3 2 1 0 2 3
3 4 6 9 5 5 1 3 3 3 3 1 0 3 3 2 1 3 3 2 1 1 2 2 4 6 3 6 6 6 7 6 3 5 5 7 7 7 10 8 6 9 3 5 5 5 4 4 3 2 2 2 4 5
6 7 6 4 5 2 2 4 2 3 3 3 2 3 2 2 4 3 3 2 2 2 3 4 5 4 2 2 2 3 8 7 7 9 6 10 5 4 6 5 5 3 1 4 5 5 5 4 3 3 3 4 5 7
5 9 6 6 4 5 5 4 4 3 3 3 2 2 2 2 3 3 2 2 3 3 5 8 6 3 2 2 2 4 4 3 2 2 5 4 8 5 2 2 2 3 5 6 6 6 6 4 5 5 5 6 8 9
8 5 5 3 4 4 3 3 4 2 2 3 3 2 1 2 4 3 1 2 2 2 4 4 4 4 3 4 2 3 5 5 4 3 3 0 2 1 1 1 2 2 4 7 6 5 6 7 8 8 8 8 9 10
6 5 3 0 1 2 2 2 1 3 4 4 3 4 3 4 4 2 2 1 2 7 14 12 7 4 4 7 6 6 4 4 6 4 4 4 2 2 3 2 3 3 4 3 4 7 10 10 10 11 12 13 14 13
2 4 5 6 3 2 3 3 4 4 3 4 1 6 4 4 1 2 2 9 15 14 9 5 4 4 4 5 9 9 6 8 3 1 5 7 7 7 8 6 5 6 8 8 9 9 10 11 13 15 16 18 20 18
3 4 2 4 3 4 4 3 1 1 2 2 2 3 3 2 4 3 6 14 11 8 11 12 14 8 7 9 12 15 15 16 8 4 3 2 2 4 16 13 11 9 9 10 9 11 12 13 16 17 19 20 21 22
4 1 3 4 4 4 2 1 2 2 1 1 1 2 2 1 8 12 12 14 15 12 11 12 14 13 10 8 9 14 19 20 18 12 3 3 7 17 18 17 16 15 14 14 15 15 14 15 17 18 20 22 23 25
2 3 3 4 3 1 1 3 2 1 1 1 0 2 2 1 5 22 23 18 17 19 18 16 16 19 17 15 13 10 9 16 21 16 14 15 16 17 18 18 17 17 17 16 16 17 18 20 20 21 23 24 25 24
4 4 2 3 2 2 0 1 1 1 1 2 2 1 0 1 3 4 20 20 17 16 17 19 18 17 16 20 17 7 9 20 22 20 19 19 18 19 20 20 20 18 17 17 18 18 18 20 22 23 24 26 27 27
2 2 2 2 2 2 3 3 1 2 2 2 2 1 1 2 3 1 9 22 17 14 15 16 20 21 14 22 21 11 15 25 22 19 18 17 17 19 21 21 18 16 20 19 19 20 22 22 23 25 26 27 27 27
Wind_Direction
251 243 244 247 242 233 238 237 224 218 220 214 215 213 211 212 206 194 208 197 177 153 282 211 229 154 94 136 139 175 97 330 79 141 153 179 179 209 157 178 171 157 163 194 142 202 268 182 93 184 206 173 177 199
247 242 243 245 246 234 229 230 227 224 223 222 222 219 214 215 210 191 175 200 201 118 242 242 247 242 248 182 125 261 143 153 160 117 197 110 177 71 163 225 144 222 191 180 190 203 235 195 198 220 161 184 209 203
248 242 242 237 240 236 235 229 227 224 221 223 224 227 217 215 205 201 189 182 175 134 281 223 229 235 224 203 174 129 299 160 178 161 152 175 195 128 165 239 150 256 157 214 95 215 221 202 238 240 196 215 218 212
243 243 236 232 227 230 237 227 225 225 224 220 220 222 220 214 208 203 190 194 186 120 198 276 286 232 215 205 198 161 141 139 111 117 127 146 170 180 197 169 179 199 155 196 273 285 255 244 230 237 253 230 238 226
237 236 233 228 225 229 230 218 217 215 218 220 221 215 210 213 210 213 198 200 199 173 189 250 284 232 201 207 192 177 146 127 129 101 119 205 181 119 298 105 241 194 226 218 238 246 240 253 243 228 224 237 232 228
235 231 225 222 226 225 224 214 217 212 203 207 212 210 208 207 202 186 199 207 210 204 191 198 244 225 201 202 191 187 172 120 138 141 180 226 217 155 184 208 240 234 212 226 242 253 245 252 249 247 221 241 233 218
232 229 225 221 225 226 219 215 216 208 201 196 200 208 211 207 206 172 181 193 194 185 188 207 269 284 208 119 66 114 160 177 148 162 202 184 193 183 195 222 238 216 228 239 238 238 261 251 241 243 228 244 242 233
236 228 228 216 214 217 208 205 202 191 191 189 191 195 195 215 216 220 212 225 172 177 191 200 225 333 174 151 170 159 147 173 191 191 164 191 152 203 235 238 238 245 250 250 240 218 235 256 221 238 219 162 197 211
241 218 228 203 197 196 194 193 192 185 184 188 195 201 205 208 192 183 192 204 199 210 212 166 160 221 177 94 110 162 155 195 164 201 200 160 178 223 220 213 223 232 229 241 238 188 210 223 250 218 176 173 195 183
216 239 209 177 182 183 183 179 180 174 179 183 155 145 209 195 167 151 138 175 203 193 209 200 89 182 138 119 114 128 185 205 185 229 134 204 229 238 225 216 229 233 236 163 181 261 152 251 218 198 200 150 129 119
196 168 160 160 164 167 169 172 176 173 171 139 158 200 168 146 128 161 190 193 177 208 202 195 168 139 244 138 160 216 183 177 195 221 186 205 246 242 228 235 241 239 195 194 191 145 123 158 185 157 128 98 100 99
139 136 136 142 146 155 167 173 176 168 168 174 143 137 174 184 173 189 182 144 190 211 248 163 197 168 173 133 131 178 184 189 218 132 150 227 246 241 215 226 239 156 143 134 146 141 120 97 98 114 118 118 118 124
73 108 137 147 156 166 181 190 194 183 146 127 116 160 151 218 191 193 177 216 170 189 184 175 169 131 134 179 169 178 198 209 109 189 218 225 243 223 221 165 121 109 115 120 107 101 109 106 110 116 113 120 125 122
88 98 115 134 159 187 195 195 176 162 141 154 161 182 189 185 236 186 182 176 225 138 156 131 126 150 173 178 180 209 196 135 203 204 226 242 223 235 168 115 125 155 130 123 123 121 118 117 104 110 122 131 131 119
77 87 100 107 131 148 183 185 188 169 125 155 149 204 194 214 27 260 254 15 312 199 136 103 61 149 176 205 199 153 173 214 208 224 231 299 335 336 112 102 127 134 128 120 120 116 120 123 119 113 119 119 121 132
90 101 53 38 42 50 217 207 216 167 149 167 153 106 344 69 318 5 19 85 272 151 75 82 159 214 206 208 191 197 166 208 232 215 291 321 354 0 101 94 77 79 116 121 115 116 118 121 129 137 142 133 122 103
60 83 3 346 328 304 257 179 180 190 323 182 178 29 105 120 168 188 154 205 254 66 156 168 218 228 183 226 229 185 203 225 348 12 341 358 13 89 90 94 106 106 110 122 117 123 125 133 133 134 112 118 110 99
69 34 359 350 188 179 115 37 42 63 80 35 99 305 36 68 77 17 6 360 29 154 138 282 342 221 223 214 271 350 20 18 11 12 27 11 36 32 78 101 111 114 131 131 125 131 137 140 133 139 135 126 116 98
73 62 15 12 138 106 76 24 13 93 62 194 64 58 83 118 6 24 349 334 346 352 85 71 217 201 202 60 339 7 43 271 178 48 67 48 83 89 92 103 112 121 130 130 140 144 145 141 137 148 145 123 108 74
64 32 10 343 165 91 88 35 15 84 114 107 37 36 77 60 308 11 11 14 349 55 62 35 42 1 347 7 352 303 322 337 196 169 100 74 67 100 116 130 125 139 131 128 127 134 135 139 155 153 141 128 57 34
20 18 2 43 52 57 69 30 59 60 99 83 298 21 65 35 32 17 17 334 63 36 49 16 22 327 321 326 332 306 339 350 330 307 133 143 155 144 138 137 144 146 134 147 140 137 166 174 155 154 137 165 335 351
59 33 69 42 77 60 76 17 73 52 58 126 54 41 39 41 28 8 311 51 51 21 2 333 341 323 338 3 335 340 326 325 317 49 90 116 125 141 152 159 148 135 151 168 172 172 172 159 150 159 203 278 337 345
97 52 53 22 77 44 319 347 81 15 80 69 49 73 43 30 333 309 75 68 76 7 298 299 303 301 291 318 326 344 2 0 25 40 82 97 121 131 140 153 168 149 153 181 176 182 179 176 194 219 236 296 327 334
50 47 31 39 27 56 359 31 41 55 49 36 58 85 39 356 324 64 74 23 319 330 341 323 318 314 294 332 0 354 2 29 75 72 81 112 92 94 144 145 154 174 169 177 188 202 207 210 210 237 267 303 325 328
70 6 10 16 15 36 38 23 5 50 69 27 78 61 13 341 69 56 56 341 338 1 359 349 354 358 336 328 351 349 12 27 51 56 46 104 118 113 127 178 213 224 226 220 225 227 224 225 242 259 276 296 312 315
68 350 39 342 0 46 350 62 33 18 4 63 41 335 357 62 62 51 354 315 312 329 345 336 334 339 7 17 352 6 8 13 14 57 44 96 0 46 134 56 5 347 251 242 258 259 259 254 261 272 284 294 298 302
52 350 346 19 317 288 59 21 9 48 50 27 353 352 25 64 56 323 314 16 315 319 321 316 294 284 295 336 17 18 13 34 53 61 38 36 25 355 350 338 306 330 339 308 285 267 263 267 272 277 284 292 293 294
97 26 20 337 28 12 97 46 35 34 4 348 275 33 67 39 326 322 309 331 331 335 338 335 323 320 340 13 17 22 27 2 342 39 85 66 66 70 53 9 343 312 294 290 285 280 277 278 279 282 284 286 292 297
33 339 308 7 41 50 46 44 51 18 345 332 48 67 76 43 323 305 306 337 356 12 30 22 22 43 69 70 64 57 51 45 42 50 43 12 345 358 354 356 355 346 324 306 298 292 293 292 291 290 290 289 292 295
342 24 353 25 54 36 354 347 344 337 319 11 321 112 90 342 21 17 23 26 22 19 27 32 34 41 33 46 42 49 43 38 36 29 347 340 322 329 336 339 337 334 330 323 316 309 302 294 290 289 291 293 295 300
315 4 54 35 77 303 339 325 295 288 303 34 22 68 107 222 72 41 39 36 42 45 42 35 36 37 32 23 14 5 3 5 2 358 350 337 334 335 336 335 334 332 328 322 317 314 312 309 308 307 305 303 303 304
350 32 5 55 8 284 130 50 12 76 357 56 22 27 110 78 55 45 19 26 33 35 31 26 15 352 355 3 353 340 349 349 345 342 337 332 331 331 330 327 325 322 316 314 314 314 313 309 307 305 303 302 304 304
346 8 33 52 23 23 8 334 187 113 90 80 55 61 71 87 88 43 36 23 12 0 6 12 12 7 356 348 340 331 337 336 332 328 327 322 315 320 323 322 322 316 314 312 309 311 311 309 304 302 300 299 299 300